Погода в Горжице

Чехия     50°22′02″N   15°37′53″E
темп.,
°C
ветер,
м/с
пор.,
м/с
влажн.,
%
обл.,
%
осадки,
мм/ч
давл.,
гПа
погр.,
м
14 апреля, ср
ср1423:00+3сз3578100 0.0 1026102
02:00+2сз3679100 0.0 1026133
05:00+2сз4880100 0.0 1025199
08:00+2сз4778100 0.0 1026404
11:00+5сз5652100 0.0 10261401
14:00+7ссз6742100 0.0 10252307
17:00+7ссз6743100 0.0 10241954
20:00+3ссз3657100 0.0 1025102
15 апреля, чт
чт1523:00+2ссз2264100 0.0 102533
02:00+1сз2370100 0.0 102564
05:00+1сз2374100 0.0 102454
08:00+2сз4770100 0.0 1024413
11:00+4сз4559100 0.0 10241304
14:00+4сз6765100 0.1 10241177
17:00+3зсз6873100 0.1 1023918
20:00+1з5993100 0.3 1023561
16 апреля, пт
пт1623:00+1з51097100 0.7 1022356
02:00+1з4799100 1.6 1022251
05:00+1зсз23100100 0.5 1022149
08:00+2з12100100 0.7 1023125
11:00+2з2399100 0.1 1024160
14:00+2з2399100 0.4 1024296
17:00+3з2399100 0.3 1024252
20:00+3з2299100 0.4 1024169
17 апреля, сб
сб1723:00+3з2399100 0.0 1024142
02:00+3з239995 0.0 1023141
05:00+2сз119790 0.0 102320
08:00+4сз1290100 0.0 1021181
11:00+5ссв2593100 0.2 1023779
14:00+5ссв3594100 0.5 1022562
17:00+6св3588100 0.0 1022617
20:00+4св3797100 0.0 1022343
18 апреля, вс
вс1823:00+4ссв2696100 0.0 1022275
02:00+4ссз2395100 0.1 1021109
05:00+5ссз2594100 0.0 1021142
08:00+7с378780 0.1 1020391
11:00+8св4785100 0.2 1020613
14:00+11св5670100 0.1 10181085
17:00+10св347196 0.3 1019862
20:00+7ссв2489100 0.4 102091